This demonstration page uses our WeatherBlox Daily Observations layout. Learn more.

Left ArrowRight Arrow

Hourly Observations for May 29, 2022

Temp ( °F °C ) Dew Point ( °F °C ) Humidity (%) Winds ( mph kmh ) Pressure ( in mb ) Visibility ( mi km ) Precip ( " mm )
12:53 am 00:53 Partly Cloudy 73 22.8 64 17.8 74 74 SSE 17 28 29.48 998 10 16 0.00 0.00
1:53 am 01:53 Partly Cloudy 74 23.3 64 17.8 71 71 S 12 19 29.49 999 10 16 0.00 0.00
2:53 am 02:53 Partly Cloudy 76 24.4 63 17.2 64 64 S 20 31 29.45 997 10 16 0.00 0.00
3:53 am 03:53 Clear 74 23.3 63 17.2 69 69 S 13 20 29.44 997 10 16 0.00 0.00
4:53 am 04:53 Clear 72 22.2 63 17.2 73 73 SSE 15 24 29.44 997 10 16 0.00 0.00
5:53 am 05:53 Clear 72 22.2 63 17.2 73 73 SSE 21 33 29.43 997 10 16 0.00 0.00
6:53 am 06:53 Partly Cloudy 73 22.8 63 17.2 71 71 SSE 20 31 29.44 997 10 16 0.00 0.00
7:53 am 07:53 Partly Cloudy 73 22.8 63 17.2 71 71 SSE 20 31 29.44 997 10 16 0.00 0.00
8:53 am 08:53 Mostly Cloudy 77 25 63 17.2 62 62 S 26 43 29.44 997 10 16 0.00 0.00
9:53 am 09:53 Cloudy 80 26.7 64 17.8 58 58 S 23 37 29.44 997 10 16 0.00 0.00
10:53 am 10:53 Cloudy 81 27.2 65 18.3 58 58 S 24 39 29.43 997 10 16 0.00 0.00
11:53 am 11:53 Cloudy 85 29.4 64 17.8 50 50 S 30 48 29.42 996 10 16 0.00 0.00
12:53 pm 12:53 Cloudy 87 30.6 65 18.3 48 48 S 31 50 29.41 996 10 16 0.00 0.00
1:53 pm 13:53 Cloudy 87 30.6 65 18.3 48 48 S 29 46 29.40 996 10 16 0.00 0.00
2:53 pm 14:53 Cloudy 90 32.2 67 19.4 47 47 S 29 46 29.39 995 10 16 0.00 0.00
3:53 pm 15:53 Mostly Cloudy 90 32.2 67 19.4 47 47 S 30 48 29.39 995 10 16 0.00 0.00
4:53 pm 16:53 Mostly Cloudy 89 31.7 67 19.4 48 48 S 28 44 29.38 995 10 16 0.00 0.00
5:53 pm 17:53 Mostly Cloudy 87 30.6 69 20.6 55 55 S 30 48 29.38 995 10 16 0.00 0.00
6:53 pm 18:53 Mostly Cloudy 85 29.4 68 20 57 57 S 23 37 29.39 995 10 16 0.00 0.00
7:53 pm 19:53 Mostly Cloudy 82 27.8 67 19.4 60 60 SSE 21 33 29.40 996 10 16 0.00 0.00
8:53 pm 20:53 Mostly Cloudy 80 26.7 66 18.9 62 62 SSE 23 37 29.42 996 10 16 0.00 0.00
9:53 pm 21:53 Mostly Clear 78 25.6 67 19.4 69 69 SSE 22 35 29.43 997 10 16 0.00 0.00
10:53 pm 22:53 Mostly Clear 78 25.6 66 18.9 67 67 S 28 44 29.45 997 10 16 0.00 0.00
11:53 pm 23:53 Mostly Clear 77 25 66 18.9 69 69 SSE 25 41 29.46 998 10 16 0.00 0.00

Powered by AerisWeather